EW6851 Weather Reports


Display with metric or nautical units.
time (UTC)temp
F
wind
direction
speed
MPH
gust
MPH
rain 1hr
in
rain 24hr
in
rain mn
in
humidity
%
barometer
mb
20260902100642 88 289 4.0 11.0 0.00 0.00 0.00 63 1018.5
20260902100141 88 275 1.0 9.0 0.00 0.00 0.00 64 1018.5
20260902095647 88 313 7.0 10.0 0.00 0.00 0.00 64 1018.5
20260902095141 88 266 3.0 12.0 0.00 0.00 0.00 62 1018.5
20260902094641 88 289 6.0 9.0 0.00 0.00 0.00 62 1018.5
20260902094141 88 305 7.0 9.0 0.00 0.00 0.00 63 1018.6
20260902093644 87 290 4.0 11.0 0.00 0.00 0.00 63 1018.5
20260902093141 88 307 6.0 10.0 0.00 0.00 0.00 61 1018.5
20260902092644 88 278 3.0 7.0 0.00 0.00 0.00 60 1018.5
20260902092150 88 263 3.0 8.0 0.00 0.00 0.00 63 1018.5
20260902091644 88 284 4.0 6.0 0.00 0.00 0.00 64 1018.4
20260902091142 87 301 2.0 8.0 0.00 0.00 0.00 62 1018.4
20260902090645 87 309 7.0 10.0 0.00 0.00 0.00 62 1018.4
20260902090151 88 234 4.0 9.0 0.00 0.00 0.00 62 1018.4
20260902085642 87 346 3.0 7.0 0.00 0.00 0.00 63 1018.3
20260902085144 87 309 3.0 9.0 0.00 0.00 0.00 64 1018.2
20260902084641 87 230 3.0 8.0 0.00 0.00 0.00 63 1018.2
20260902084141 87 306 5.0 7.0 0.00 0.00 0.00 65 1018.1
20260902083641 87 316 4.0 8.0 0.00 0.00 0.00 64 1018.1
20260902083145 87 342 7.0 8.0 0.00 0.00 0.00 64 1018.0
20260902082641 87 317 3.0 8.0 0.00 0.00 0.00 64 1018.0
20260902082142 87 265 3.0 9.0 0.00 0.00 0.00 63 1018.1
20260902081641 87 313 4.0 7.0 0.00 0.00 0.00 63 1018.0
20260902081142 87 319 3.0 7.0 0.00 0.00 0.00 63 1018.0
20260902080644 87 298 4.0 7.0 0.00 0.00 0.00 64 1018.0
20260902080141 87 287 3.0 8.0 0.00 0.00 0.00 62 1018.0
20260902075642 86 307 3.0 6.0 0.00 0.00 0.00 63 1017.9
20260902075151 86 338 5.0 6.0 0.00 0.00 0.00 64 1017.8
20260902074641 86 300 3.0 6.0 0.00 0.00 0.00 64 1017.8
20260902074144 86 201 3.0 7.0 0.00 0.00 0.00 63 1017.7
20260902073645 86 303 4.0 4.0 0.00 0.00 0.00 64 1017.7
20260902073141 86 318 1.0 6.0 0.00 0.00 0.00 63 1017.7
20260902072641 86 303 2.0 5.0 0.00 0.00 0.00 62 1017.8
20260902072144 86 39 0.0 8.0 0.00 0.00 0.00 62 1017.8
20260902071647 86 292 4.0 6.0 0.00 0.00 0.00 63 1017.6
20260902071145 86 261 2.0 5.0 0.00 0.00 0.00 63 1017.6
20260902070648 85 284 2.0 5.0 0.00 0.00 0.00 63 1017.7
20260902070145 85 221 2.0 6.0 0.00 0.00 0.00 63 1017.6
20260902065645 85 240 0.0 2.0 0.00 0.00 0.00 64 1017.5
20260902065142 85 178 1.0 4.0 0.00 0.00 0.00 64 1017.5
20260902064645 85 245 2.0 4.0 0.00 0.00 0.00 65 1017.5
20260902064148 85 119 0.0 0.0 0.00 0.00 0.00 66 1017.5
20260902063645 84 187 0.0 1.0 0.00 0.00 0.00 68 1017.4
20260902063148 83 139 0.0 3.0 0.00 0.00 0.00 68 1017.4
20260902062642 83 191 2.0 3.0 0.00 0.00 0.00 69 1017.3
20260902062145 83 144 3.0 5.0 0.00 0.00 0.00 71 1017.3
20260902061142 82 202 2.0 6.0 0.00 0.00 0.00 72 1017.3
20260902060648 82 149 3.0 5.0 0.00 0.00 0.00 72 1017.2
20260902060145 82 173 2.0 4.0 0.00 0.00 0.00 73 1017.3
20260902055642 81 173 0.0 2.0 0.00 0.00 0.00 74 1017.3
20260902055145 81 173 0.0 0.0 0.00 0.00 0.00 75 1017.3
20260902054648 80 173 0.0 3.0 0.00 0.00 0.00 76 1017.3
20260902054142 80 167 2.0 4.0 0.00 0.00 0.00 76 1017.3
20260902053642 80 216 0.0 6.0 0.00 0.00 0.00 77 1017.3
20260902053148 79 153 2.0 5.0 0.00 0.00 0.00 78 1017.3
20260902052648 79 141 2.0 6.0 0.00 0.00 0.00 78 1017.3
20260902052142 79 164 4.0 6.0 0.00 0.00 0.00 78 1017.2
20260902051645 79 171 1.0 5.0 0.00 0.00 0.00 78 1017.2
20260902051145 78 173 1.0 4.0 0.00 0.00 0.00 79 1017.3
20260902050645 78 154 3.0 7.0 0.00 0.00 0.00 78 1017.3
20260902050142 78 135 1.0 6.0 0.00 0.00 0.00 78 1017.2
20260902045645 78 151 4.0 6.0 0.00 0.00 0.00 79 1017.3
20260902045142 78 134 3.0 6.0 0.00 0.00 0.00 79 1017.3
20260902044642 78 167 3.0 5.0 0.00 0.00 0.00 79 1017.3
20260902044148 78 148 5.0 7.0 0.00 0.00 0.00 79 1017.3
20260902043651 78 123 3.0 7.0 0.00 0.00 0.00 79 1017.3
20260902043145 78 139 5.0 6.0 0.00 0.00 0.00 79 1017.3
20260902042642 78 127 1.0 6.0 0.00 0.00 0.00 79 1017.3
20260902042145 78 128 4.0 6.0 0.00 0.00 0.00 79 1017.4
20260902041642 78 120 3.0 7.0 0.00 0.00 0.00 79 1017.4
20260902041142 78 145 2.0 7.0 0.00 0.00 0.00 79 1017.4
20260902040642 78 178 3.0 5.0 0.00 0.00 0.00 79 1017.4
20260902040145 78 180 4.0 6.0 0.00 0.00 0.00 79 1017.4
20260902035651 78 137 1.0 4.0 0.00 0.00 0.00 79 1017.4
20260902035142 78 136 3.0 6.0 0.00 0.00 0.00 79 1017.4
20260902034642 78 134 4.0 5.0 0.00 0.00 0.00 79 1017.4
20260902034145 78 138 3.0 6.0 0.00 0.00 0.00 79 1017.4
20260902033642 78 143 5.0 6.0 0.00 0.00 0.00 80 1017.4
20260902033148 78 158 3.0 6.0 0.00 0.00 0.00 80 1017.4
20260902032642 78 162 2.0 6.0 0.00 0.00 0.00 80 1017.4
20260902032145 78 173 5.0 7.0 0.00 0.00 0.00 80 1017.4
20260902031648 78 165 3.0 6.0 0.00 0.00 0.00 80 1017.4
20260902031143 78 240 1.0 7.0 0.00 0.00 0.00 80 1017.4
20260902030643 78 148 2.0 6.0 0.00 0.00 0.00 80 1017.5
20260902030142 78 142 0.0 5.0 0.00 0.00 0.00 80 1017.5
20260902025645 78 192 1.0 5.0 0.00 0.00 0.00 80 1017.5
20260902025146 78 165 3.0 4.0 0.00 0.00 0.00 80 1017.5
20260902024645 78 142 2.0 4.0 0.00 0.00 0.00 80 1017.5
20260902024142 78 145 4.0 5.0 0.00 0.00 0.00 80 1017.5
20260902023645 78 200 1.0 4.0 0.00 0.00 0.00 80 1017.5
20260902023145 78 143 3.0 5.0 0.00 0.00 0.00 80 1017.5
20260902022642 78 171 3.0 4.0 0.00 0.00 0.00 80 1017.5
20260902022145 78 159 3.0 7.0 0.00 0.00 0.00 80 1017.6
20260902021642 78 145 3.0 6.0 0.00 0.00 0.00 80 1017.6
20260902021142 79 109 4.0 6.0 0.00 0.00 0.00 80 1017.6
20260902020642 79 153 1.0 5.0 0.00 0.00 0.00 80 1017.6
20260902020143 79 123 4.0 5.0 0.00 0.00 0.00 80 1017.6
20260902015643 79 77 0.0 5.0 0.00 0.00 0.00 80 1017.6
20260902015140 79 178 1.0 6.0 0.00 0.00 0.00 79 1017.6
20260902014641 79 133 3.0 5.0 0.00 0.00 0.00 79 1017.5
20260902014140 79 174 3.0 4.0 0.00 0.00 0.00 79 1017.5
20260902013650 79 158 1.0 4.0 0.00 0.00 0.00 79 1017.5
20260902013146 79 167 0.0 4.0 0.00 0.00 0.00 79 1017.6
20260902012640 79 140 4.0 6.0 0.00 0.00 0.00 79 1017.6
20260902012140 79 117 3.0 5.0 0.00 0.00 0.00 79 1017.5
20260902011647 79 164 3.0 7.0 0.00 0.00 0.00 79 1017.5
20260902011144 79 132 2.0 5.0 0.00 0.00 0.00 79 1017.6
20260902010644 79 144 4.0 5.0 0.00 0.00 0.00 79 1017.6
20260902010140 79 139 0.0 3.0 0.00 0.00 0.00 79 1017.6
20260902005640 79 143 0.0 3.0 0.00 0.00 0.00 79 1017.6
20260902005147 79 114 2.0 4.0 0.00 0.00 0.00 79 1017.6
20260902004640 79 184 0.0 7.0 0.00 0.00 0.00 79 1017.6
20260902004141 79 153 1.0 7.0 0.00 0.00 0.00 79 1017.6
20260902003643 79 119 3.0 6.0 0.00 0.00 0.00 79 1017.7
20260902003142 79 163 1.0 7.0 0.00 0.00 0.00 79 1017.6
20260902002643 79 150 1.0 6.0 0.00 0.00 0.00 79 1017.6
20260902002150 79 148 3.0 4.0 0.00 0.00 0.00 79 1017.6
20260902001647 79 146 4.0 6.0 0.00 0.00 0.00 79 1017.6
20260902001141 79 153 2.0 5.0 0.00 0.00 0.00 79 1017.6
20260902000644 79 175 1.0 3.0 0.00 0.00 0.00 79 1017.6
20260902000141 79 171 0.0 5.0 0.00 0.00 0.00 78 1017.6
20260901235641 79 159 1.0 4.0 0.00 0.00 0.00 78 1017.6
20260901235144 79 155 4.0 5.0 0.00 0.00 0.00 78 1017.6
20260901234644 79 172 0.0 6.0 0.00 0.00 0.00 78 1017.7
20260901234141 79 163 0.0 4.0 0.00 0.00 0.00 78 1017.7
20260901233644 80 161 0.0 4.0 0.00 0.00 0.00 78 1017.7
20260901233144 80 106 2.0 5.0 0.00 0.00 0.00 78 1017.7
20260901232644 80 141 2.0 5.0 0.00 0.00 0.00 77 1017.8
20260901232141 80 182 0.0 5.0 0.00 0.00 0.00 77 1017.8
20260901231641 80 159 2.0 5.0 0.00 0.00 0.00 77 1017.7
20260901231144 80 137 0.0 4.0 0.00 0.00 0.00 77 1017.7
20260901230644 80 160 1.0 5.0 0.00 0.00 0.00 76 1017.7
20260901230147 80 53 0.0 6.0 0.00 0.00 0.00 76 1017.6
20260901225644 81 118 4.0 6.0 0.00 0.00 0.00 75 1017.6
20260901225141 81 138 0.0 4.0 0.00 0.00 0.00 75 1017.6
20260901224641 81 161 1.0 5.0 0.00 0.00 0.00 75 1017.6
20260901224141 81 173 0.0 3.0 0.00 0.00 0.00 74 1017.5
20260901223641 81 157 2.0 3.0 0.00 0.00 0.00 74 1017.5
20260901223144 81 170 2.0 4.0 0.00 0.00 0.00 74 1017.5
20260901222644 82 148 0.0 5.0 0.00 0.00 0.00 74 1017.5
20260901222144 82 152 0.0 3.0 0.00 0.00 0.00 74 1017.5
20260901221641 82 152 0.0 3.0 0.00 0.00 0.00 74 1017.5
20260901221141 82 152 1.0 3.0 0.00 0.00 0.00 73 1017.4
20260901220647 82 152 3.0 3.0 0.00 0.00 0.00 73 1017.5
20260901220144 82 126 0.0 4.0 0.00 0.00 0.00 73 1017.4
20260901215644 82 172 2.0 4.0 0.00 0.00 0.00 73 1017.4
20260901215144 82 193 1.0 4.0 0.00 0.00 0.00 73 1017.5
20260901214641 82 174 1.0 4.0 0.00 0.00 0.00 73 1017.5
20260901214141 82 159 3.0 4.0 0.00 0.00 0.00 72 1017.4
20260901213650 82 162 3.0 5.0 0.00 0.00 0.00 72 1017.4
20260901213144 82 182 4.0 5.0 0.00 0.00 0.00 72 1017.5
20260901212644 82 185 0.0 1.0 0.00 0.00 0.00 72 1017.4
20260901212141 82 185 1.0 3.0 0.00 0.00 0.00 72 1017.5
20260901211644 82 173 3.0 4.0 0.00 0.00 0.00 72 1017.5
20260901211144 83 234 2.0 6.0 0.00 0.00 0.00 72 1017.5
20260901210641 83 168 3.0 6.0 0.00 0.00 0.00 73 1017.4
20260901210150 83 207 5.0 6.0 0.00 0.00 0.00 73 1017.4
20260901205651 83 222 3.0 4.0 0.00 0.00 0.00 72 1017.5
20260901205144 83 228 0.0 4.0 0.00 0.00 0.00 72 1017.4
20260901204641 83 198 3.0 4.0 0.00 0.00 0.00 72 1017.4
20260901204150 83 298 2.0 5.0 0.00 0.00 0.00 73 1017.5
20260901203647 83 193 2.0 3.0 0.00 0.00 0.00 72 1017.5
20260901203144 83 171 1.0 4.0 0.00 0.00 0.00 71 1017.5
20260901202647 83 162 0.0 1.0 0.00 0.00 0.00 71 1017.5
20260901202141 83 205 0.0 4.0 0.00 0.00 0.00 71 1017.5
20260901201641 83 203 1.0 3.0 0.00 0.00 0.00 71 1017.5
20260901201144 83 182 3.0 4.0 0.00 0.00 0.00 72 1017.5
20260901200647 83 229 2.0 3.0 0.00 0.00 0.00 71 1017.5
20260901200141 83 229 2.0 3.0 0.00 0.00 0.00 70 1017.6
20260901195644 83 151 2.0 4.0 0.00 0.00 0.00 70 1017.6
20260901195141 83 145 0.0 4.0 0.00 0.00 0.00 70 1017.6
20260901194647 83 174 2.0 5.0 0.00 0.00 0.00 70 1017.6
20260901194145 83 156 4.0 5.0 0.00 0.00 0.00 69 1017.6
20260901193644 83 165 0.0 4.0 0.00 0.00 0.00 69 1017.6
20260901193141 83 141 1.0 4.0 0.00 0.00 0.00 69 1017.6
20260901192641 83 189 0.0 2.0 0.00 0.00 0.00 69 1017.5
20260901192144 83 128 2.0 3.0 0.00 0.00 0.00 69 1017.5
20260901191644 83 90 2.0 4.0 0.00 0.00 0.00 69 1017.4
20260901191150 83 159 1.0 3.0 0.00 0.00 0.00 69 1017.3
20260901190641 83 155 0.0 2.0 0.00 0.00 0.00 69 1017.3
20260901190141 83 121 1.0 3.0 0.00 0.00 0.00 69 1017.2
20260901185644 83 113 0.0 0.0 0.00 0.00 0.00 69 1017.2
20260901185147 83 191 0.0 3.0 0.00 0.00 0.00 69 1017.2
20260901184647 83 181 0.0 3.0 0.00 0.00 0.00 69 1017.1
20260901184141 83 119 2.0 3.0 0.00 0.00 0.00 69 1017.1
20260901183641 83 114 0.0 3.0 0.00 0.00 0.00 68 1017.1
20260901183141 84 148 0.0 0.0 0.00 0.00 0.00 68 1017.0
20260901182641 84 133 0.0 2.0 0.00 0.00 0.00 69 1017.0
20260901182141 84 278 0.0 3.0 0.00 0.00 0.00 69 1016.9
20260901181647 84 288 0.0 0.0 0.00 0.00 0.00 69 1016.8
20260901181144 84 288 0.0 2.0 0.00 0.00 0.00 69 1016.9
20260901180641 84 288 2.0 4.0 0.00 0.00 0.00 68 1016.8
20260901180144 84 291 4.0 4.0 0.00 0.00 0.00 68 1016.7
20260901175647 84 291 0.0 3.0 0.00 0.00 0.00 68 1016.6
20260901175144 84 336 0.0 4.0 0.00 0.00 0.00 68 1016.6
20260901174644 85 333 3.0 5.0 0.00 0.00 0.00 67 1016.6
20260901174141 85 321 2.0 5.0 0.00 0.00 0.00 67 1016.5
20260901173644 85 257 5.0 4.0 0.00 0.00 0.00 67 1016.5
20260901173141 85 288 2.0 4.0 0.00 0.00 0.00 67 1016.5
20260901172647 85 232 1.0 3.0 0.00 0.00 0.00 66 1016.5
20260901172144 85 316 3.0 5.0 0.00 0.00 0.00 65 1016.5
20260901171644 86 268 5.0 6.0 0.00 0.00 0.00 64 1016.5
20260901171144 86 309 1.0 5.0 0.00 0.00 0.00 64 1016.5
20260901170647 86 340 4.0 6.0 0.00 0.00 0.00 63 1016.5
20260901170144 86 230 0.0 4.0 0.00 0.00 0.00 63 1016.4
20260901165641 87 287 1.0 5.0 0.00 0.00 0.00 63 1016.5
20260901165141 86 273 4.0 4.0 0.00 0.00 0.00 63 1016.5
20260901164641 87 265 2.0 5.0 0.00 0.00 0.00 63 1016.4
20260901164142 87 254 1.0 5.0 0.00 0.00 0.00 63 1016.4
20260901163644 86 286 1.0 7.0 0.00 0.00 0.00 63 1016.4
20260901163147 86 271 5.0 5.0 0.00 0.00 0.00 63 1016.4
20260901162644 87 34 2.0 4.0 0.00 0.00 0.00 61 1016.5
20260901162144 87 347 2.0 5.0 0.00 0.00 0.00 61 1016.5
20260901161650 87 315 2.0 5.0 0.00 0.00 0.00 61 1016.5
20260901161141 88 299 4.0 8.0 0.00 0.00 0.00 60 1016.5
20260901160645 88 304 4.0 6.0 0.00 0.00 0.00 60 1016.5
20260901160141 88 195 3.0 6.0 0.00 0.00 0.00 59 1016.5
20260901155645 88 232 2.0 7.0 0.00 0.00 0.00 59 1016.4
20260901155144 88 277 3.0 7.0 0.00 0.00 0.00 59 1016.4
20260901154644 88 312 2.0 7.0 0.00 0.00 0.00 58 1016.4
20260901154147 88 294 3.0 6.0 0.00 0.00 0.00 58 1016.4
20260901153641 88 223 3.0 8.0 0.00 0.00 0.00 58 1016.4
20260901153141 88 269 3.0 6.0 0.00 0.00 0.00 58 1016.4
20260901152647 88 244 1.0 6.0 0.00 0.00 0.00 57 1016.4
20260901152144 89 277 4.0 7.0 0.00 0.00 0.00 57 1016.4
20260901151650 89 250 4.0 7.0 0.00 0.00 0.00 58 1016.4
20260901151141 88 303 1.0 7.0 0.00 0.00 0.00 59 1016.5
20260901150644 88 294 3.0 6.0 0.00 0.00 0.00 59 1016.4
20260901150141 88 283 1.0 6.0 0.00 0.00 0.00 58 1016.5
20260901145647 89 208 1.0 5.0 0.00 0.00 0.00 58 1016.4
20260901145141 89 288 4.0 8.0 0.00 0.00 0.00 58 1016.5
20260901144647 89 284 7.0 9.0 0.00 0.00 0.00 58 1016.5
20260901144141 88 298 3.0 6.0 0.00 0.00 0.00 59 1016.4
20260901143644 88 289 4.0 7.0 0.00 0.00 0.00 59 1016.4
20260901143141 88 267 7.0 8.0 0.00 0.00 0.00 59 1016.5
20260901142650 88 312 1.0 7.0 0.00 0.00 0.00 58 1016.5
20260901142141 88 330 6.0 9.0 0.00 0.00 0.00 58 1016.4
20260901141642 88 315 7.0 9.0 0.00 0.00 0.00 57 1016.4
20260901141144 89 300 3.0 8.0 0.00 0.00 0.00 57 1016.4
20260901140641 89 265 6.0 9.0 0.00 0.00 0.00 57 1016.4
20260901140148 88 307 6.0 9.0 0.00 0.00 0.00 58 1016.5
20260901135641 89 351 10.0 10.0 0.00 0.00 0.00 57 1016.5
20260901135144 89 17 2.0 8.0 0.00 0.00 0.00 57 1016.4
20260901134644 89 324 4.0 11.0 0.00 0.00 0.00 57 1016.4
20260901134147 89 328 4.0 10.0 0.00 0.00 0.00 56 1016.4
20260901133641 89 314 7.0 11.0 0.00 0.00 0.00 55 1016.3
20260901133144 89 297 7.0 10.0 0.00 0.00 0.00 53 1016.4
20260901132641 89 298 6.0 9.0 0.00 0.00 0.00 54 1016.4
20260901132144 89 296 8.0 9.0 0.00 0.00 0.00 55 1016.3
20260901131641 89 302 4.0 8.0 0.00 0.00 0.00 52 1016.3
20260901131147 89 240 3.0 10.0 0.00 0.00 0.00 51 1016.4
20260901130644 89 350 5.0 9.0 0.00 0.00 0.00 51 1016.4
20260901130144 89 330 4.0 8.0 0.00 0.00 0.00 52 1016.4
20260901125644 89 324 7.0 9.0 0.00 0.00 0.00 52 1016.4
20260901125141 89 339 5.0 10.0 0.00 0.00 0.00 51 1016.4
20260901124641 90 294 6.0 9.0 0.00 0.00 0.00 50 1016.5
20260901124147 90 296 8.0 10.0 0.00 0.00 0.00 50 1016.5
20260901123647 90 253 7.0 7.0 0.00 0.00 0.00 49 1016.5
20260901123144 90 320 3.0 8.0 0.00 0.00 0.00 49 1016.5
20260901122641 90 298 7.0 11.0 0.00 0.00 0.00 48 1016.6
20260901122141 90 325 3.0 8.0 0.00 0.00 0.00 49 1016.5
20260901121647 90 302 4.0 8.0 0.00 0.00 0.00 47 1016.6
20260901121144 90 5 4.0 9.0 0.00 0.00 0.00 45 1016.7
20260901120641 90 333 2.0 10.0 0.00 0.00 0.00 49 1016.7
20260901120144 90 304 8.0 10.0 0.00 0.00 0.00 48 1016.7
20260901115644 90 335 6.0 9.0 0.00 0.00 0.00 47 1016.6
20260901115142 90 304 6.0 9.0 0.00 0.00 0.00 47 1016.6
20260901114642 90 259 4.0 8.0 0.00 0.00 0.00 47 1016.6
20260901114144 90 333 2.0 10.0 0.00 0.00 0.00 48 1016.6
20260901113644 90 296 2.0 9.0 0.00 0.00 0.00 49 1016.6
20260901113144 90 287 4.0 9.0 0.00 0.00 0.00 49 1016.6
20260901112644 90 309 4.0 6.0 0.00 0.00 0.00 48 1016.6
20260901112144 89 295 2.0 8.0 0.00 0.00 0.00 48 1016.6
20260901111651 89 304 2.0 10.0 0.00 0.00 0.00 50 1016.6
20260901111141 89 336 2.0 8.0 0.00 0.00 0.00 51 1016.6
20260901110641 89 286 3.0 7.0 0.00 0.00 0.00 51 1016.6
20260901110147 88 307 6.0 11.0 0.00 0.00 0.00 52 1016.6
20260901105644 88 317 5.0 7.0 0.00 0.00 0.00 52 1016.7
20260901105142 88 301 8.0 10.0 0.00 0.00 0.00 53 1016.7
20260901104644 88 5 2.0 10.0 0.00 0.00 0.00 53 1016.7
20260901104144 88 338 3.0 9.0 0.00 0.00 0.00 54 1016.7
20260901103641 88 348 5.0 7.0 0.00 0.00 0.00 56 1016.7
20260901103141 88 258 3.0 9.0 0.00 0.00 0.00 56 1016.8
20260901102641 87 299 1.0 8.0 0.00 0.00 0.00 57 1016.7
20260901102141 87 285 3.0 9.0 0.00 0.00 0.00 57 1016.8
20260901101641 87 28 9.0 11.0 0.00 0.00 0.00 59 1016.9
20260901101141 87 304 9.0 10.0 0.00 0.00 0.00 59 1016.9